Weather History for KDSM - December, 2012

Change the Weather History Date:

Monday, December 17, 2012

  Actual Average Record
Temperature  
Mean Temperature 30 °F 25 °F  
Max Temperature 35 °F 33 °F 64 °F (1939)
Min Temperature 25 °F 17 °F -9 °F (1964)
Degree Days  
Heating Degree Days 35 40  
Month to date heating degree days 433 633  
Since 1 July heating degree days 1530 1891  
Cooling Degree Days 0 0  
Month to date cooling degree days 0 0  
Year to date cooling degree days 1613 1066  
Moisture  
Dew Point 25 °F    
Average Humidity 77    
Maximum Humidity 89    
Minimum Humidity 64    
Precipitation  
Precipitation 0.00 in 0.05 in 0.44 in (1895)
Month to date precipitation 0.69 0.86  
Year to date precipitation 25.05 35.46  
Snow  
Snow 0.00 in 0.30 in 2.80 in (1951)
Month to date snowfall 0.8 5.0  
Since 1 July snowfall 0.8 7.9  
Snow Depth 0.00 in    
Sea Level Pressure  
Sea Level Pressure 29.75 in    
Wind  
Wind Speed 3 mph (NNE)    
Max Wind Speed 8 mph    
Max Gust Speed 11 mph    
Visibility 7 miles    
Events      
T = Trace of Precipitation, MM = Missing Value Source: NWS Daily Summary

Daily Weather History Graph

Daily Weather History Graph

Search for Another Location

Airport or City:

Trip Planner

Search our weather history database for the weather conditions in past years. The results will help you decide how hot, cold, wet, or windy it might be!

Date:

Astronomy

Dec. 17, 2012 Rise Set
Actual Time 7:35 AM CST 4:46 PM CST
Civil Twilight 7:04 AM CST 5:17 PM CST
Nautical Twilight 6:29 AM CST 5:52 PM CST
Astronomical Twilight 5:55 AM CST 6:26 PM CST
Moon 10:41 AM CST (12/17) 10:12 PM CST (12/17)
Length of Visible Light 10h 13m
Length of Day
9h 10m
Waxing Crescent, 25% of the Moon is Illuminated
Dec 17
Waxing Crescent
Dec 19
First Quarter
Dec 28
Full
Jan 4
Last Quarter
Jan 11
New

Hourly Weather History & Observations

Time (CST) Temp. Windchill Dew Point Humidity Pressure Visibility Wind Dir Wind Speed Gust Speed Precip Events Conditions
12:54 AM 30.0 °F 23.2 °F 24.1 °F 79% 29.81 in 10.0 mi NNW 6.9 mph - N/A   Overcast
1:54 AM 30.0 °F 23.2 °F 23.0 °F 75% 29.78 in 10.0 mi North 6.9 mph - N/A   Overcast
2:54 AM 28.9 °F 23.9 °F 23.0 °F 78% 29.79 in 10.0 mi North 4.6 mph - N/A   Overcast
3:54 AM 27.0 °F 21.6 °F 21.9 °F 81% 29.79 in 10.0 mi NNE 4.6 mph - N/A   Mostly Cloudy
4:16 AM 27.0 °F 19.5 °F 21.9 °F 81% 29.75 in 10.0 mi North 6.9 mph - N/A   Overcast
4:54 AM 26.1 °F 19.4 °F 21.9 °F 84% 29.79 in 10.0 mi North 5.8 mph - N/A   Overcast
5:54 AM 25.0 °F - 21.9 °F 88% 29.79 in 6.0 mi Calm Calm - N/A   Overcast
6:12 AM 26.1 °F 20.5 °F 21.9 °F 84% 29.76 in 6.0 mi NNW 4.6 mph - N/A   Overcast
6:54 AM 25.0 °F 18.1 °F 21.0 °F 85% 29.80 in 8.0 mi NW 5.8 mph - N/A   Overcast
7:34 AM 25.0 °F 20.7 °F 21.0 °F 85% 29.76 in 7.0 mi North 3.5 mph - N/A   Overcast
7:54 AM 25.0 °F - 21.9 °F 88% 29.79 in 6.0 mi Calm Calm - N/A   Overcast
8:54 AM 27.0 °F 23.0 °F 21.9 °F 81% 29.79 in 4.0 mi North 3.5 mph - N/A   Overcast
9:54 AM 28.0 °F - 23.0 °F 81% 29.78 in 4.0 mi Calm Calm - N/A   Haze
10:44 AM 28.9 °F - 23.0 °F 78% 29.75 in 4.0 mi Calm Calm - N/A   Haze
10:54 AM 28.9 °F - 23.0 °F 78% 29.78 in 4.0 mi Calm Calm - N/A   Haze
11:18 AM 28.9 °F - 23.0 °F 78% 29.74 in 4.0 mi Calm Calm - N/A   Haze
11:34 AM 30.0 °F 26.5 °F 23.0 °F 75% 29.74 in 4.0 mi SW 3.5 mph - N/A   Haze
11:54 AM 32.0 °F - 24.1 °F 73% 29.75 in 4.0 mi Calm Calm - N/A   Haze
12:54 PM 32.0 °F - 24.1 °F 73% 29.73 in 6.0 mi Calm Calm - N/A   Haze
1:54 PM 33.1 °F - 24.1 °F 70% 29.72 in 10.0 mi Calm Calm - N/A   Overcast
2:54 PM 34.0 °F - 25.0 °F 70% 29.71 in 10.0 mi Calm Calm - N/A   Overcast
3:54 PM 35.1 °F - 25.0 °F 67% 29.72 in 10.0 mi Calm Calm - N/A   Overcast
6:45 PM 35.1 °F 32.2 °F 26.1 °F 70% 29.69 in 10.0 mi East 3.5 mph - N/A   Overcast
6:54 PM 35.1 °F 32.2 °F 26.1 °F 70% 29.73 in 10.0 mi East 3.5 mph - N/A   Overcast
7:30 PM 34.0 °F 28.8 °F 26.1 °F 73% 29.70 in 10.0 mi SE 5.8 mph - N/A   Overcast
7:54 PM 34.0 °F 31.0 °F 27.0 °F 75% 29.73 in 8.0 mi ESE 3.5 mph - N/A   Overcast
8:54 PM 34.0 °F 28.8 °F 28.0 °F 79% 29.73 in 8.0 mi SE 5.8 mph - N/A   Overcast
9:11 PM 34.0 °F 28.8 °F 28.0 °F 79% 29.69 in 8.0 mi SSE 5.8 mph - N/A   Overcast
9:54 PM 34.0 °F 29.8 °F 28.9 °F 82% 29.73 in 7.0 mi South 4.6 mph - N/A   Overcast
10:40 PM 34.0 °F 28.0 °F 30.0 °F 85% 29.70 in 5.0 mi SW 6.9 mph - N/A   Overcast
10:54 PM 34.0 °F 28.0 °F 30.0 °F 85% 29.73 in 6.0 mi SSW 6.9 mph - N/A   Overcast
11:09 PM 34.0 °F 27.2 °F 30.0 °F 85% 29.70 in 6.0 mi SW 8.1 mph - N/A   Overcast
11:54 PM 33.1 °F 26.9 °F 28.9 °F 85% 29.71 in 6.0 mi SSW 6.9 mph - N/A   Overcast